This is the latest recevied weather packets stored in our database for station/object KB9HUO. If no packets are shown the sender has not sent any weather packets the latest 10 day(s).
| Time | Temp. | Humidity | Pressure | Rain* | Wind** | Luminosity | Snow |
|---|---|---|---|---|---|---|---|
| 1778101294 | 15.56° C | 57% | 1015.1 hPa | 0 mm | - | 142 W/m² | - |
| 1778100991 | 15.56° C | 60% | 1015.2 hPa | 0 mm | - | 142 W/m² | - |
| 1778100686 | 15.56° C | 58% | 1015.1 hPa | 0 mm | - | 148 W/m² | - |
| 1778100385 | 15.56° C | 55% | 1015.1 hPa | 0 mm | - | 150 W/m² | - |
| 1778100081 | 15.56° C | 58% | 1015.2 hPa | 0 mm | - | 170 W/m² | - |
| 1778099779 | 15.56° C | 58% | 1015.1 hPa | 0 mm | - | 171 W/m² | - |
| 1778099476 | 15.56° C | 61% | 1015 hPa | 0 mm | - | 185 W/m² | - |
| 1778099174 | 15.56° C | 57% | 1015 hPa | 0 mm | - | 177 W/m² | - |
| 1778098869 | 15.56° C | 57% | 1015 hPa | 0 mm | - | 195 W/m² | - |
| 1778098567 | 15.56° C | 60% | 1015.3 hPa | 0 mm | - | 172 W/m² | - |
| 1778098263 | 15° C | 64% | 1015.2 hPa | 0 mm | - | 192 W/m² | - |
| 1778097960 | 15° C | 59% | 1015 hPa | 0 mm | - | 200 W/m² | - |
| 1778097657 | 15.56° C | 56% | 1015.1 hPa | 0 mm | - | 174 W/m² | - |
| 1778097353 | 15.56° C | 57% | 1015.1 hPa | 0 mm | - | 176 W/m² | - |
| 1778097050 | 15.56° C | 60% | 1015.1 hPa | 0 mm | - | 216 W/m² | - |
| 1778096748 | 15.56° C | 55% | 1014.9 hPa | 0 mm | - | 214 W/m² | - |
| 1778096443 | 15° C | 59% | 1014.9 hPa | 0 mm | - | 233 W/m² | - |
| 1778096141 | 15° C | 60% | 1014.9 hPa | 0 mm | - | 249 W/m² | - |
| 1778095838 | 15° C | 59% | 1015.1 hPa | 0 mm | - | 214 W/m² | - |
| 1778095535 | 15° C | 57% | 1015.3 hPa | 0 mm | - | 248 W/m² | - |
| 1778095231 | 15.56° C | 57% | 1015.2 hPa | 0 mm | - | 227 W/m² | - |
| 1778094928 | 15.56° C | 58% | 1015.2 hPa | 0 mm | - | 240 W/m² | - |
| 1778094624 | 15.56° C | 59% | 1015.3 hPa | 0 mm | - | 236 W/m² | - |
| 1778094321 | 15.56° C | 57% | 1015.2 hPa | 0 mm | - | 266 W/m² | - |
| 1778094018 | 15.56° C | 63% | 1015.4 hPa | 0 mm | - | 291 W/m² | - |
* Rain latest hour (hover to see other rain measurements)
** Current wind speed in m/s (hover to see current wind gust speed)